This demonstration page uses our WeatherBlox Daily Observations layout. Learn more.

Left ArrowRight Arrow

31.84235, -102.49876

Hourly Observations for June 26, 2022

Temp ( °F °C ) Dew Point ( °F °C ) Humidity (%) Winds ( mph kmh ) Pressure ( in mb ) Visibility ( mi km ) Precip ( " mm )
12:53 am 00:53 Clear 84 28.9 41 5 22 22 S 8 13 29.92 1013 10 16 0.00 0.00
1:53 am 01:53 Clear 84 28.9 43 6.1 24 24 S 12 19 29.93 1014 10 16 0.00 0.00
2:53 am 02:53 Clear 81 27.2 44 6.7 27 27 S 7 11 29.94 1014 10 16 0.00 0.00
3:53 am 03:53 Clear 80 26.7 43 6.1 27 27 S 3 6 29.94 1014 10 16 0.00 0.00
4:53 am 04:53 Clear 77 25 44 6.7 31 31 Calm 29.96 1015 10 16 0.00 0.00
5:53 am 05:53 Clear 74 23.3 44 6.7 34 34 NNE 7 11 29.99 1016 10 16 0.00 0.00
6:53 am 06:53 Sunny 73 22.8 45 7.2 37 37 NNE 7 11 30.01 1016 10 16 0.00 0.00
7:53 am 07:53 Sunny 76 24.4 48 8.9 37 37 NNE 5 7 30.03 1017 10 16 0.00 0.00
8:53 am 08:53 Sunny 81 27.2 51 10.6 35 35 ENE 3 6 30.05 1018 10 16 0.00 0.00
9:53 am 09:53 Sunny 84 28.9 56 13.3 38 38 SE 6 9 30.06 1018 10 16 0.00 0.00
10:53 am 10:53 Sunny 86 30 57 13.9 37 37 undefined N/A 30.07 1018 10 16 0.00 0.00
11:53 am 11:53 Sunny 88 31.1 57 13.9 35 35 VRB 7 11 30.06 1018 10 16 0.00 0.00
12:53 pm 12:53 Mostly Sunny 91 32.8 57 13.9 32 32 E 10 17 30.05 1018 10 16 0.00 0.00
1:53 pm 13:53 Partly Cloudy 91 32.8 56 13.3 31 31 VRB 5 7 30.05 1018 10 16 0.00 0.00
2:53 pm 14:53 Mostly Sunny 94 34.4 55 12.8 27 27 E 12 19 30.04 1017 10 16 0.00 0.00
3:53 pm 15:53 Partly Cloudy 94 34.4 55 12.8 27 27 ENE 17 28 30.03 1017 10 16 0.00 0.00
4:53 pm 16:53 Sunny 94 34.4 54 12.2 26 26 ENE 16 26 30.00 1016 10 16 0.00 0.00
5:53 pm 17:53 Mostly Sunny 94 34.4 53 11.7 25 25 ENE 15 24 29.98 1015 10 16 0.00 0.00
6:53 pm 18:53 Sunny 94 34.4 53 11.7 25 25 E 21 33 29.97 1015 10 16 0.00 0.00
7:53 pm 19:53 Sunny 91 32.8 54 12.2 28 28 E 17 28 29.98 1015 10 16 0.00 0.00
8:53 pm 20:53 Sunny 89 31.7 54 12.2 30 30 E 20 31 30.00 1016 10 16 0.00 0.00
9:38 pm 21:38 Mostly Cloudy with Haze 83 28.3 60 15.6 46 46 ENE 28 44 29.99 1016 3 4 0.00 0.00
9:53 pm 21:53 Mostly Cloudy with Haze 81 27.2 59 15 47 47 ENE 21 33 30.05 1018 4 6 0.00 0.00
10:53 pm 22:53 Clear 80 26.7 61 16.1 52 52 E 23 37 30.09 1019 10 16 0.00 0.00
11:53 pm 23:53 Clear 78 25.6 60 15.6 54 54 ENE 25 41 30.12 1020 7 11 0.00 0.00

Powered by AerisWeather